timestamp,surface_pressure_avg,surface_temp_avg,battery_voltage,lat,long
2021-02-17 00:09:01+00:00,285.2547,1.6,12.65,47.84626,-54.09684
2021-02-17 00:19:01+00:00,293.3898,1.6,12.65,47.84626,-54.09684
2021-02-17 00:29:01+00:00,296.188,1.57,12.65,47.84626,-54.09684
2021-02-17 00:39:01+00:00,303.8663,1.5,12.65,47.84626,-54.09684
2021-02-17 00:49:01+00:00,312.2531,1.5,12.65,47.84626,-54.09684
2021-02-17 00:59:01+00:00,312.1213,1.5,12.65,47.84626,-54.09684
2021-02-17 01:09:01+00:00,316.1396,1.49,12.65,47.84626,-54.09684
2021-02-17 01:19:01+00:00,320.318,1.47,12.57,47.84626,-54.09684
2021-02-17 01:29:01+00:00,325.1447,1.4,12.57,47.84626,-54.09684
2021-02-17 01:39:01+00:00,328.6197,1.4,12.57,47.84626,-54.09684
2021-02-17 01:49:01+00:00,339.5813,1.4,12.57,47.84626,-54.09684
2021-02-17 01:59:01+00:00,339.1063,1.3,12.57,47.84626,-54.09684
2021-02-17 02:09:01+00:00,333.2797,1.1,12.57,47.84626,-54.09684
2021-02-17 02:19:01+00:00,343.1846,1.0,12.57,47.84626,-54.09684
2021-02-17 02:29:01+00:00,349.7879,0.99,12.57,47.84626,-54.09684
2021-02-17 02:39:01+00:00,349.3279,0.98,12.57,47.84626,-54.09684
2021-02-17 02:49:01+00:00,350.4297,1.0,12.57,47.84626,-54.09684
2021-02-17 02:59:01+00:00,363.6696,1.04,12.57,47.84626,-54.09684
2021-02-17 03:09:01+00:00,366.6829,1.18,12.57,47.84626,-54.09684
2021-02-17 03:19:01+00:00,345.3696,1.36,12.57,47.84626,-54.09684
2021-02-17 03:29:01+00:00,342.5847,1.4,12.57,47.84626,-54.09684
2021-02-17 03:39:01+00:00,351.9129,1.36,12.57,47.84626,-54.09684
2021-02-17 03:49:01+00:00,346.4046,1.3,12.57,47.84626,-54.09684
2021-02-17 03:59:01+00:00,336.548,1.4,12.57,47.84626,-54.09684
2021-02-17 04:09:01+00:00,339.598,1.4,12.57,47.84626,-54.09684
2021-02-17 04:19:01+00:00,349.4213,1.37,12.57,47.84626,-54.09684
2021-02-17 04:29:01+00:00,344.098,1.2,12.57,47.84626,-54.09684
2021-02-17 04:39:01+00:00,337.0397,1.13,12.57,47.84626,-54.09684
2021-02-17 04:49:01+00:00,337.1096,1.1,12.57,47.84626,-54.09684
2021-02-17 04:59:01+00:00,335.6296,1.0,12.57,47.84626,-54.09684
2021-02-17 05:09:01+00:00,335.4763,1.0,12.57,47.84626,-54.09684
2021-02-17 05:19:01+00:00,325.2596,0.99,12.49,47.84626,-54.09684
2021-02-17 05:29:01+00:00,318.9529,0.9,12.49,47.84626,-54.09684
2021-02-17 05:39:01+00:00,316.0797,0.8,12.49,47.84626,-54.09684
2021-02-17 05:49:01+00:00,312.9147,0.8,12.49,47.84626,-54.09684
2021-02-17 05:59:01+00:00,305.633,0.7,12.49,47.84626,-54.09684
2021-02-17 06:09:01+00:00,301.628,0.7,12.49,47.84626,-54.09684
2021-02-17 06:19:01+00:00,305.2563,0.68,12.49,47.84626,-54.09684
2021-02-17 06:29:01+00:00,297.9564,0.6,12.49,47.84626,-54.09684
2021-02-17 06:39:01+00:00,280.9663,0.56,12.49,47.84626,-54.09684
2021-02-17 06:49:01+00:00,282.188,0.54,12.49,47.84626,-54.09684
2021-02-17 06:59:01+00:00,281.2198,0.5,12.49,47.84626,-54.09684
2021-02-17 07:09:01+00:00,260.1797,0.49,12.49,47.84626,-54.09684
2021-02-17 07:19:01+00:00,247.2113,0.4,12.49,47.84626,-54.09684
2021-02-17 07:29:01+00:00,251.8398,0.4,12.49,47.84626,-54.09684
2021-02-17 07:39:01+00:00,246.1348,0.4,12.49,47.84626,-54.09684
2021-02-17 07:49:01+00:00,233.2598,0.4,12.49,47.84626,-54.09684
2021-02-17 07:59:01+00:00,225.3114,0.4,12.49,47.84626,-54.09684
2021-02-17 08:09:01+00:00,227.3348,0.4,12.49,47.84626,-54.09684
2021-02-17 08:19:01+00:00,226.0414,0.5,12.49,47.84626,-54.09684
2021-02-17 08:29:01+00:00,224.6248,0.5,12.49,47.84626,-54.09684
2021-02-17 08:39:01+00:00,229.9564,0.5,12.49,47.84626,-54.09684
2021-02-17 08:49:01+00:00,226.1198,0.51,12.49,47.84626,-54.09684
2021-02-17 08:59:01+00:00,214.4131,0.57,12.49,47.84626,-54.09684
2021-02-17 09:09:01+00:00,225.8331,0.59,12.49,47.84626,-54.09684
2021-02-17 09:19:01+00:00,238.0398,0.6,12.49,47.84626,-54.09684
2021-02-17 09:29:01+00:00,223.8981,0.6,12.49,47.84626,-54.09684
2021-02-17 09:39:01+00:00,211.3581,0.55,12.49,47.84626,-54.09684
2021-02-17 09:49:01+00:00,214.6497,0.5,12.49,47.84626,-54.09684
2021-02-17 09:59:01+00:00,227.0298,0.5,12.49,47.84626,-54.09684
2021-02-17 10:09:01+00:00,223.5515,0.5,12.49,47.84626,-54.09684
2021-02-17 10:19:01+00:00,223.0381,0.5,12.49,47.84626,-54.09684
2021-02-17 10:29:01+00:00,236.3115,0.5,12.49,47.84626,-54.09684
2021-02-17 10:39:01+00:00,239.6514,0.5,12.49,47.84626,-54.09684
2021-02-17 10:49:01+00:00,237.3831,0.57,12.49,47.84626,-54.09684
2021-02-17 10:59:01+00:00,232.8298,0.57,12.49,47.84626,-54.09684
2021-02-17 11:09:01+00:00,240.8581,0.52,12.49,47.84626,-54.09684
2021-02-17 11:19:01+00:00,255.3531,0.55,12.49,47.84626,-54.09684
2021-02-17 11:29:01+00:00,252.7914,0.59,12.49,47.84626,-54.09684
2021-02-17 11:39:01+00:00,258.3531,0.5,12.49,47.84626,-54.09684
2021-02-17 11:49:01+00:00,272.8898,0.5,12.49,47.84626,-54.09684
2021-02-17 11:59:01+00:00,281.753,0.69,12.49,47.84626,-54.09684
2021-02-17 12:09:01+00:00,265.7715,0.7,12.49,47.84626,-54.09684
2021-02-17 12:19:01+00:00,263.9881,0.68,12.57,47.84626,-54.09684
2021-02-17 12:29:01+00:00,276.8513,0.69,12.57,47.84626,-54.09684
2021-02-17 12:39:01+00:00,281.803,0.63,12.57,47.84626,-54.09684
2021-02-17 12:49:01+00:00,271.7581,0.6,12.57,47.84626,-54.09684
2021-02-17 12:59:01+00:00,275.2731,0.6,12.57,47.84626,-54.09684
2021-02-17 13:09:01+00:00,282.2147,0.6,12.57,47.84626,-54.09684
2021-02-17 13:19:01+00:00,290.033,0.6,12.81,47.84626,-54.09684
2021-02-17 13:29:01+00:00,298.2581,0.61,12.81,47.84626,-54.09684
2021-02-17 13:39:01+00:00,310.9664,0.65,12.81,47.84626,-54.09684
2021-02-17 13:49:01+00:00,321.9014,0.68,12.81,47.84626,-54.09684
2021-02-17 13:59:01+00:00,328.658,0.69,12.81,47.84626,-54.09684
2021-02-17 14:09:01+00:00,333.0046,0.69,12.81,47.84626,-54.09684
2021-02-17 14:19:01+00:00,335.7114,0.69,13.05,47.84626,-54.09684
2021-02-17 14:29:01+00:00,335.5896,0.66,13.05,47.84626,-54.09684
2021-02-17 14:39:01+00:00,334.6813,0.6,13.05,47.84626,-54.09684
2021-02-17 14:49:01+00:00,340.3713,0.61,13.05,47.84626,-54.09684
2021-02-17 14:59:01+00:00,342.8846,0.7,13.05,47.84626,-54.09684
2021-02-17 15:09:01+00:00,340.4179,0.79,13.05,47.84626,-54.09684
2021-02-17 15:19:01+00:00,341.0862,0.77,13.13,47.84626,-54.09684
2021-02-17 15:29:01+00:00,340.3513,0.8,13.13,47.84626,-54.09684
2021-02-17 15:39:01+00:00,336.7496,0.9,13.13,47.84626,-54.09684
2021-02-17 15:49:01+00:00,332.0763,0.9,13.13,47.84626,-54.09684
2021-02-17 15:59:01+00:00,333.2662,0.9,13.13,47.84626,-54.09684
2021-02-17 16:09:01+00:00,329.9980000000001,0.9,13.13,47.84626,-54.09684
2021-02-17 16:19:01+00:00,312.8831,0.89,13.13,47.84626,-54.09684
2021-02-17 16:29:01+00:00,305.4196,0.8,13.13,47.84626,-54.09684
2021-02-17 16:39:01+00:00,312.0397,0.8,13.13,47.84626,-54.09684
2021-02-17 16:49:01+00:00,313.7446,0.9,13.13,47.84626,-54.09684
2021-02-17 16:59:01+00:00,312.103,1.0,13.13,47.84626,-54.09684
2021-02-17 17:09:01+00:00,315.478,1.03,13.13,47.84626,-54.09684
2021-02-17 17:19:01+00:00,317.553,1.1,13.21,47.84626,-54.09684
2021-02-17 17:29:01+00:00,309.2213,1.18,13.21,47.84626,-54.09684
2021-02-17 17:39:01+00:00,301.7679,1.19,13.21,47.84626,-54.09684
2021-02-17 17:49:01+00:00,297.3114,1.2,13.21,47.84626,-54.09684
2021-02-17 17:59:01+00:00,293.4948,1.2,13.21,47.84626,-54.09684
2021-02-17 18:09:01+00:00,280.2497,1.2,13.21,47.84626,-54.09684
2021-02-17 18:19:01+00:00,263.3564,1.21,13.84,47.84626,-54.09684
2021-02-17 18:29:01+00:00,250.2597,1.2,13.84,47.84626,-54.09684
2021-02-17 18:39:01+00:00,244.2214,1.2,13.84,47.84626,-54.09684
2021-02-17 18:49:01+00:00,235.7564,1.22,13.84,47.84626,-54.09684
2021-02-17 18:59:01+00:00,220.0815,1.29,13.84,47.84626,-54.09684
2021-02-17 19:09:01+00:00,209.9481,1.29,13.84,47.84626,-54.09684
2021-02-17 19:19:01+00:00,208.1514,1.27,14.0,47.84626,-54.09684
2021-02-17 19:29:01+00:00,196.8564,1.24,14.0,47.84626,-54.09684
2021-02-17 19:39:01+00:00,180.4414,1.26,14.0,47.84626,-54.09684
2021-02-17 19:49:01+00:00,176.3715,1.22,14.0,47.84626,-54.09684
2021-02-17 19:59:01+00:00,183.8632,1.2,14.0,47.84626,-54.09684
2021-02-17 20:09:01+00:00,178.4415,1.21,14.0,47.84626,-54.09684
2021-02-17 20:19:01+00:00,158.3682,1.2,13.76,47.84626,-54.09684
2021-02-17 20:29:01+00:00,157.9832,1.2,13.76,47.84626,-54.09684
2021-02-17 20:39:01+00:00,166.2715,1.2,13.76,47.84626,-54.09684
2021-02-17 20:49:01+00:00,162.0865,1.2,13.76,47.84626,-54.09684
2021-02-17 20:59:01+00:00,163.4182,1.2,13.76,47.84626,-54.09684
2021-02-17 21:09:01+00:00,170.3515,1.2,13.76,47.84626,-54.09684
2021-02-17 21:19:01+00:00,168.7498,1.2,13.29,47.84626,-54.09684
2021-02-17 21:29:01+00:00,176.7282,1.2,13.29,47.84626,-54.09684
2021-02-17 21:39:01+00:00,182.1848,1.2,13.29,47.84626,-54.09684
2021-02-17 21:49:01+00:00,182.4265,1.2,13.29,47.84626,-54.09684
2021-02-17 21:59:01+00:00,191.6731,1.2,13.29,47.84626,-54.09684
2021-02-17 22:09:01+00:00,210.9015,1.2,13.29,47.84626,-54.09684
2021-02-17 22:19:01+00:00,219.9815,1.2,12.89,47.84626,-54.09684
2021-02-17 22:29:01+00:00,211.1597,1.19,12.89,47.84626,-54.09684
2021-02-17 22:39:01+00:00,217.1881,1.2,12.89,47.84626,-54.09684
2021-02-17 22:49:01+00:00,229.9981,1.2,12.89,47.84626,-54.09684
2021-02-17 22:59:01+00:00,224.9931,1.2,12.89,47.84626,-54.09684
2021-02-17 23:09:01+00:00,220.4598,1.2,12.89,47.84626,-54.09684
2021-02-17 23:19:01+00:00,232.1431,1.2,12.73,47.84626,-54.09684
2021-02-17 23:29:01+00:00,239.0081,1.18,12.73,47.84626,-54.09684
2021-02-17 23:39:01+00:00,235.6631,1.17,12.73,47.84626,-54.09684
2021-02-17 23:49:01+00:00,239.7814,1.17,12.73,47.84626,-54.09684
2021-02-17 23:59:01+00:00,251.7314,1.16,12.73,47.84626,-54.09684
